Location: Street
(51.1247°N, 2.7429°W)
Time: 19:34:43
(UTC+01:00)

X-37B - Visible Passes

Search period start: 01 August 2021 00:00
Search period end: 11 August 2021 00:00
Orbit: 383 x 392 km, 45.0° (Epoch: 01 July)

Date Brightness Start Highest point End Pass type
(mag) Time Alt. Az. Time Alt. Az. Time Alt. Az.
03 Aug 3.1 04:12:06 10° SSE 04:13:00 11° SSE 04:13:53 10° SE visible
04 Aug 2.4 04:48:20 10° SSW 04:50:44 20° SSE 04:53:10 10° ESE visible
05 Aug 2.6 03:52:22 15° SSE 03:52:36 15° SSE 03:54:35 10° ESE visible
06 Aug 2.0 04:28:45 16° SSW 04:30:26 24° S 04:33:06 10° ESE visible
07 Aug 2.4 03:32:54 19° SSE 03:32:54 19° SSE 03:34:42 10° ESE visible
07 Aug 1.8 05:05:36 10° WSW 05:08:22 27° S 05:11:09 10° ESE visible
08 Aug 1.8 04:09:23 24° SSW 04:10:10 27° S 04:12:54 10° ESE visible
09 Aug 2.8 03:13:38 16° SE 03:13:38 16° SE 03:14:36 10° ESE visible
09 Aug 1.8 04:45:55 13° WSW 04:48:05 25° S 04:50:47 10° SE visible
10 Aug 1.8 03:50:18 26° SSE 03:50:18 26° SSE 03:52:39 10° ESE visible
